Weather History for Rawlins, WY

Change the Weather History Date:

Monday, April 21, 2014

  Actual Average Record
Temperature  
Mean Temperature 47 °F 42 °F  
Max Temperature 66 °F 55 °F 75 °F (1989)
Min Temperature 27 °F 28 °F 9 °F (1982)
Degree Days  
Heating Degree Days 18 23  
Month to date heating degree days 500 549  
Since 1 July heating degree days 7205 7521  
Cooling Degree Days 0 0  
Month to date cooling degree days 0 0  
Year to date cooling degree days 0 0  
Moisture  
Dew Point 17 °F    
Average Humidity 43    
Maximum Humidity 78    
Minimum Humidity 8    
Precipitation  
Precipitation 0.00 in 0.04 in 0.46 in (1970)
Month to date precipitation 0.38 0.71  
Year to date precipitation 1.43 2.17  
Sea Level Pressure  
Sea Level Pressure 30.08 in    
Wind  
Wind Speed 6 mph (WNW)    
Max Wind Speed 23 mph    
Max Gust Speed 33 mph    
Visibility 10 miles    
Events      
T = Trace of Precipitation, MM = Missing Value Source: NWS Daily Summary

Daily Weather History Graph

Daily Weather History Graph

Search for Another Location

Airport:

Trip Planner

Search our weather history database for the weather conditions in past years. The results will help you decide how hot, cold, wet, or windy it might be!

Date:

Astronomy

Apr. 21, 2014 Rise Set
Actual Time 6:19 AM MDT 7:56 PM MDT
Civil Twilight 5:49 AM MDT 8:25 PM MDT
Nautical Twilight 5:14 AM MDT 9:01 PM MDT
Astronomical Twilight 4:36 AM MDT 9:39 PM MDT
Moon 1:29 AM MDT (4/21) 11:48 AM MDT (4/21)
Length of Visible Light 14h 35m
Length of Day
13h 37m
Waning Gibbous, 57% of the Moon is Illuminated
Apr 21
Waning Gibbous
Apr 22
Last Quarter
Apr 29
New
May 6
First Quarter
May 14
Full

Hourly Weather History & Observations

Time (MDT) Temp. Windchill Dew Point Humidity Pressure Visibility Wind Dir Wind Speed Gust Speed Precip Events Conditions
12:53 AM 39.9 °F 32.5 °F 27.0 °F 60% 30.07 in 10.0 mi NW 12.7 mph - N/A   Clear
1:53 AM 36.0 °F 33.3 °F 27.0 °F 70% 30.08 in 10.0 mi Variable 3.5 mph - N/A   Clear
2:53 AM 34.0 °F 26.0 °F 26.1 °F 73% 30.10 in 10.0 mi NW 10.4 mph - N/A   Clear
3:53 AM 32.0 °F 28.7 °F 25.0 °F 75% 30.12 in 10.0 mi NNW 3.5 mph - N/A   Clear
4:53 AM 28.0 °F - 23.0 °F 81% 30.15 in 10.0 mi Calm Calm - N/A   Clear
5:53 AM 28.0 °F - 23.0 °F 81% 30.16 in 10.0 mi Calm Calm - N/A   Clear
6:53 AM 30.0 °F - 25.0 °F 82% 30.17 in 10.0 mi Calm Calm - N/A   Clear
7:53 AM 39.0 °F - 28.9 °F 67% 30.15 in 10.0 mi Calm Calm - N/A   Clear
8:53 AM 44.1 °F - 28.9 °F 55% 30.16 in 10.0 mi Calm Calm - N/A   Clear
9:53 AM 48.0 °F - 28.9 °F 48% 30.14 in 10.0 mi Calm Calm - N/A   Clear
10:53 AM 55.0 °F - 19.9 °F 25% 30.11 in 10.0 mi West 11.5 mph 17.3 mph N/A   Clear
11:53 AM 59.0 °F - 15.1 °F 18% 30.10 in 10.0 mi West 13.8 mph 23.0 mph N/A   Clear
12:53 PM 61.0 °F - 17.1 °F 18% 30.09 in 10.0 mi WNW 18.4 mph 21.9 mph N/A   Clear
1:53 PM 62.1 °F - 14.0 °F 15% 30.10 in 10.0 mi WNW 15.0 mph 21.9 mph N/A   Clear
2:53 PM 64.0 °F - 14.0 °F 14% 30.07 in 10.0 mi Variable 5.8 mph 19.6 mph N/A   Clear
3:53 PM 66.0 °F - 5.0 °F 9% 30.03 in 10.0 mi West 20.7 mph 33.4 mph N/A   Clear
4:53 PM 64.9 °F - 3.9 °F 9% 30.04 in 10.0 mi WSW 11.5 mph 32.2 mph N/A   Clear
5:53 PM 64.0 °F - 1.9 °F 8% 30.03 in 10.0 mi West 17.3 mph 20.7 mph N/A   Clear
6:53 PM 61.0 °F - 3.0 °F 10% 30.03 in 10.0 mi West 10.4 mph - N/A   Clear
7:53 PM 52.0 °F - 8.1 °F 17% 30.02 in 10.0 mi WNW 5.8 mph - N/A   Clear
8:53 PM 45.0 °F 41.8 °F 10.0 °F 24% 30.04 in 10.0 mi NNW 5.8 mph - N/A   Clear
9:53 PM 41.0 °F - 10.9 °F 29% 30.04 in 10.0 mi Calm Calm - N/A   Clear
10:53 PM 39.0 °F - 12.9 °F 34% 29.99 in 10.0 mi Calm Calm - N/A   Clear
11:53 PM 37.0 °F - 14.0 °F 39% 29.98 in 10.0 mi Calm Calm - N/A   Clear